Total_Precipitation_Accumulation
0.64 0.65 0.65 0.68 0.73 0.80 0.87 0.90 0.90 0.95 0.94 0.95 0.97 0.99 0.99 1.02 1.06 1.10 1.06 1.05 1.07 1.06 1.05 1.08 1.09 1.06 1.07 1.05 1.08 1.13 1.19 1.25 1.25 0.96 0.77 0.74 0.77 0.78 0.79 0.74 0.69 0.70 0.68
0.60 0.58 0.58 0.60 0.62 0.65 0.69 0.75 0.77 0.81 0.85 0.86 0.87 0.89 0.86 0.85 0.89 0.93 0.95 0.94 0.95 0.96 0.99 1.04 1.07 1.08 1.12 1.13 1.16 1.19 1.20 1.19 1.20 1.08 0.88 0.79 0.74 0.70 0.68 0.66 0.63 0.60 0.56
0.43 0.42 0.44 0.46 0.50 0.55 0.58 0.59 0.63 0.70 0.75 0.77 0.77 0.80 0.82 0.80 0.81 0.82 0.83 0.84 0.85 0.85 0.86 0.89 0.91 0.96 1.02 1.03 1.06 1.11 1.12 1.11 1.11 1.03 0.86 0.71 0.65 0.63 0.66 0.64 0.58 0.55 0.50
0.32 0.31 0.33 0.37 0.41 0.44 0.46 0.45 0.47 0.51 0.57 0.62 0.66 0.69 0.70 0.73 0.76 0.79 0.82 0.81 0.79 0.79 0.78 0.80 0.83 0.87 0.92 0.98 1.02 1.03 1.04 1.06 1.07 1.05 0.96 0.80 0.68 0.61 0.63 0.63 0.58 0.50 0.45
0.35 0.34 0.32 0.33 0.35 0.38 0.39 0.39 0.39 0.40 0.41 0.45 0.51 0.58 0.64 0.66 0.70 0.74 0.77 0.79 0.80 0.80 0.82 0.86 0.91 1.00 1.02 0.98 0.95 0.92 0.92 0.96 0.99 0.99 0.91 0.78 0.68 0.61 0.61 0.56 0.54 0.51 0.49
0.43 0.38 0.34 0.34 0.34 0.31 0.30 0.31 0.31 0.32 0.34 0.37 0.43 0.47 0.54 0.60 0.76 0.75 0.71 0.72 0.80 0.84 0.85 0.85 0.88 0.98 0.96 0.95 0.89 0.85 0.86 0.91 0.93 0.87 0.76 0.63 0.51 0.44 0.44 0.51 0.56 0.61 0.59
0.48 0.43 0.37 0.34 0.32 0.29 0.27 0.28 0.30 0.33 0.36 0.39 0.41 0.45 0.51 0.64 0.80 0.77 0.80 0.74 0.77 0.82 0.84 0.82 0.78 0.75 0.76 0.69 0.74 0.79 0.79 0.78 0.74 0.67 0.62 0.51 0.43 0.40 0.48 0.58 0.59 0.58 0.48
0.50 0.48 0.45 0.45 0.45 0.47 0.47 0.48 0.49 0.49 0.50 0.55 0.59 0.62 0.65 0.74 0.80 0.72 0.69 0.64 0.68 0.70 0.69 0.67 0.63 0.58 0.56 0.56 0.59 0.65 0.57 0.54 0.53 0.48 0.45 0.42 0.41 0.43 0.51 0.61 0.64 0.65 0.57
0.67 0.65 0.65 0.67 0.71 0.75 0.77 0.77 0.77 0.79 0.78 0.76 0.73 0.69 0.66 0.66 0.66 0.61 0.57 0.52 0.53 0.52 0.50 0.49 0.49 0.47 0.53 0.60 0.55 0.51 0.47 0.45 0.49 0.51 0.52 0.51 0.55 0.57 0.59 0.65 0.73 0.81 0.74
0.74 0.77 0.81 0.85 0.90 0.87 0.86 0.82 0.75 0.71 0.70 0.68 0.67 0.64 0.58 0.51 0.47 0.42 0.40 0.37 0.36 0.34 0.33 0.33 0.39 0.41 0.49 0.55 0.48 0.45 0.43 0.38 0.39 0.43 0.45 0.44 0.42 0.46 0.55 0.55 0.63 0.83 0.74
0.70 0.71 0.73 0.72 0.72 0.69 0.66 0.63 0.58 0.53 0.47 0.43 0.39 0.36 0.32 0.30 0.29 0.29 0.29 0.27 0.28 0.29 0.28 0.27 0.29 0.38 0.42 0.44 0.44 0.39 0.39 0.42 0.40 0.40 0.41 0.42 0.42 0.42 0.44 0.45 0.50 0.73 0.86
0.49 0.47 0.44 0.39 0.35 0.34 0.34 0.34 0.33 0.30 0.27 0.24 0.21 0.19 0.17 0.16 0.19 0.22 0.26 0.29 0.31 0.29 0.27 0.25 0.27 0.38 0.42 0.42 0.39 0.39 0.44 0.46 0.40 0.42 0.44 0.43 0.41 0.39 0.37 0.38 0.41 0.47 0.56
0.16 0.14 0.13 0.10 0.09 0.09 0.08 0.09 0.11 0.14 0.14 0.14 0.14 0.14 0.14 0.14 0.16 0.20 0.24 0.30 0.33 0.32 0.29 0.31 0.34 0.37 0.39 0.38 0.39 0.42 0.42 0.39 0.38 0.40 0.39 0.36 0.35 0.36 0.41 0.45 0.48 0.49 0.49
0.03 0.03 0.03 0.03 0.03 0.03 0.04 0.04 0.06 0.07 0.09 0.11 0.12 0.13 0.13 0.13 0.15 0.18 0.23 0.28 0.33 0.34 0.33 0.34 0.36 0.36 0.36 0.36 0.38 0.38 0.37 0.36 0.37 0.38 0.36 0.35 0.38 0.44 0.47 0.49 0.53 0.52 0.55
0.03 0.03 0.03 0.03 0.04 0.04 0.04 0.04 0.06 0.06 0.09 0.12 0.14 0.15 0.17 0.18 0.17 0.24 0.30 0.32 0.34 0.37 0.40 0.38 0.36 0.34 0.32 0.32 0.32 0.32 0.33 0.35 0.37 0.36 0.39 0.41 0.42 0.44 0.44 0.45 0.51 0.56 0.56
0.07 0.06 0.07 0.07 0.07 0.07 0.07 0.07 0.09 0.10 0.12 0.14 0.15 0.17 0.17 0.20 0.24 0.30 0.34 0.36 0.40 0.46 0.48 0.41 0.33 0.29 0.28 0.29 0.30 0.32 0.32 0.33 0.35 0.37 0.40 0.44 0.47 0.48 0.46 0.44 0.48 0.55 0.54
0.13 0.14 0.14 0.13 0.13 0.13 0.12 0.13 0.13 0.14 0.16 0.16 0.17 0.18 0.19 0.21 0.25 0.28 0.31 0.36 0.40 0.45 0.42 0.34 0.29 0.28 0.28 0.30 0.32 0.34 0.34 0.32 0.36 0.41 0.44 0.48 0.52 0.52 0.51 0.50 0.50 0.52 0.51
0.14 0.18 0.20 0.19 0.20 0.21 0.20 0.20 0.20 0.21 0.20 0.18 0.19 0.22 0.24 0.24 0.26 0.28 0.32 0.39 0.39 0.37 0.30 0.25 0.24 0.26 0.30 0.33 0.35 0.38 0.38 0.38 0.40 0.41 0.44 0.49 0.55 0.58 0.56 0.52 0.52 0.54 0.55
0.13 0.15 0.18 0.21 0.23 0.24 0.24 0.24 0.24 0.23 0.21 0.19 0.19 0.23 0.28 0.32 0.34 0.33 0.37 0.37 0.31 0.25 0.21 0.20 0.23 0.28 0.32 0.36 0.38 0.41 0.44 0.46 0.45 0.49 0.50 0.51 0.56 0.64 0.60 0.52 0.53 0.52 0.55
0.13 0.18 0.20 0.20 0.22 0.24 0.26 0.25 0.24 0.23 0.22 0.20 0.18 0.19 0.27 0.38 0.35 0.29 0.30 0.30 0.28 0.25 0.23 0.24 0.26 0.30 0.35 0.39 0.42 0.45 0.48 0.48 0.50 0.54 0.55 0.56 0.57 0.64 0.64 0.58 0.57 0.58 0.54
0.16 0.19 0.25 0.23 0.21 0.22 0.25 0.26 0.25 0.24 0.23 0.21 0.18 0.22 0.35 0.41 0.34 0.28 0.26 0.28 0.29 0.30 0.30 0.31 0.31 0.35 0.40 0.44 0.47 0.48 0.47 0.45 0.47 0.54 0.55 0.55 0.59 0.61 0.57 0.59 0.59 0.62 0.65
0.18 0.20 0.22 0.23 0.23 0.26 0.29 0.29 0.29 0.28 0.27 0.26 0.24 0.28 0.38 0.37 0.31 0.28 0.28 0.29 0.30 0.32 0.34 0.38 0.40 0.39 0.45 0.53 0.58 0.59 0.52 0.45 0.45 0.53 0.57 0.54 0.55 0.58 0.61 0.68 0.71 0.72 0.69
0.20 0.21 0.22 0.24 0.26 0.31 0.33 0.30 0.30 0.31 0.31 0.31 0.31 0.32 0.34 0.34 0.32 0.31 0.31 0.32 0.35 0.36 0.37 0.41 0.44 0.41 0.41 0.49 0.57 0.70 0.73 0.62 0.55 0.61 0.75 0.76 0.73 0.75 0.80 0.82 0.76 0.69 0.59
0.21 0.22 0.24 0.25 0.27 0.30 0.31 0.30 0.30 0.30 0.31 0.32 0.33 0.33 0.33 0.33 0.34 0.34 0.35 0.36 0.37 0.37 0.37 0.40 0.42 0.41 0.42 0.48 0.53 0.58 0.66 0.76 0.92 1.03 1.13 1.23 1.07 0.88 0.83 0.78 0.68 0.61 0.57
0.24 0.25 0.26 0.27 0.29 0.30 0.30 0.29 0.29 0.30 0.31 0.31 0.32 0.32 0.32 0.33 0.34 0.35 0.36 0.37 0.37 0.36 0.34 0.37 0.41 0.45 0.46 0.48 0.52 0.54 0.59 0.74 1.00 1.22 1.21 1.12 0.94 0.79 0.79 0.77 0.68 0.62 0.60
0.26 0.28 0.29 0.30 0.30 0.29 0.29 0.29 0.28 0.30 0.31 0.30 0.31 0.32 0.32 0.32 0.33 0.34 0.35 0.36 0.36 0.34 0.33 0.33 0.36 0.42 0.46 0.46 0.43 0.48 0.59 0.68 0.72 0.76 0.94 1.03 0.92 0.78 0.76 0.81 0.74 0.69 0.65